Ellsworth AFB, SD

9:17 AM MDT on March 29, 2017 (GMT -0600)
Ellsworth Air Force Base

Weather History for KRCA - October, 2012

Change the Weather History Date:

Friday, October 5, 2012

  Actual Average Record
Temperature  
Mean Temperature 36 °F -  
Max Temperature 43 °F 64 °F 87 °F (1996)
Min Temperature 30 °F 39 °F 26 °F (2000)
Degree Days  
Heating Degree Days 28    
Moisture  
Dew Point 23 °F    
Average Humidity 58    
Maximum Humidity 76    
Minimum Humidity 42    
Precipitation  
Precipitation 0.00 in - - ()
Sea Level Pressure  
Sea Level Pressure 30.42 in    
Wind  
Wind Speed 5 mph (NNW)    
Max Wind Speed 10 mph    
Max Gust Speed -    
Visibility 10 miles    
Events      
Averages and records for this station are not official NWS values.
T = Trace of Precipitation, MM = Missing Value Source: NWS Daily Summary

Daily Weather History Graph

Daily Weather History Graph

Search for Another Location

Airport or City:

Trip Planner

Search our weather history database for the weather conditions in past years. The results will help you decide how hot, cold, wet, or windy it might be!

Date:

Astronomy

Oct. 05, 2012 Rise Set
Actual Time 6:55 AM MDT 6:24 PM MDT
Civil Twilight 6:26 AM MDT 6:53 PM MDT
Nautical Twilight 5:53 AM MDT 7:27 PM MDT
Astronomical Twilight 5:19 AM MDT 8:00 PM MDT
Moon 9:40 PM MDT (10/5) 12:15 PM MDT (10/5)
Length of Visible Light 12h 27m
Length of Day
11h 29m
Waning Gibbous, 73% of the Moon is Illuminated
Oct 5
Waning Gibbous
Oct 8
Last Quarter
Oct 15
New
Oct 21
First Quarter
Oct 29
Full

Hourly Weather History & Observations

Time (MDT) Temp. Windchill Dew Point Humidity Pressure Visibility Wind Dir Wind Speed Gust Speed Precip Events Conditions
12:55 AM 37.9 °F 34.4 °F 25.0 °F 60% 30.40 in 10.0 mi North 4.6 mph - N/A   Overcast
1:55 AM 34.0 °F 29.8 °F 24.3 °F 68% 30.40 in 10.0 mi NNE 4.6 mph - N/A   Clear
2:55 AM 33.3 °F 27.1 °F 24.3 °F 70% 30.40 in 10.0 mi North 6.9 mph - N/A   Mostly Cloudy
3:55 AM 31.6 °F 27.0 °F 24.3 °F 74% 30.39 in 10.0 mi WNW 4.6 mph - N/A   Scattered Clouds
4:55 AM 30.7 °F 24.1 °F 24.1 °F 76% 30.40 in 10.0 mi NNW 6.9 mph - N/A   Scattered Clouds
5:55 AM 31.8 °F 24.6 °F 25.2 °F 76% 30.41 in 10.0 mi NNW 8.1 mph - N/A   Overcast
6:55 AM 33.3 °F 27.9 °F 25.3 °F 73% 30.43 in 10.0 mi NW 5.8 mph - N/A   Overcast
7:55 AM 34.7 °F 28.8 °F 22.8 °F 62% 30.43 in 10.0 mi North 6.9 mph - N/A   Overcast
8:55 AM 35.4 °F 29.7 °F 21.6 °F 57% 30.44 in 10.0 mi North 6.9 mph - N/A   Overcast
9:55 AM 37.4 °F 34.9 °F 21.9 °F 54% 30.44 in 10.0 mi Variable 3.5 mph - N/A   Overcast
10:55 AM 38.5 °F - 19.9 °F 47% 30.43 in 10.0 mi Calm Calm - N/A   Overcast
11:55 AM 39.2 °F 35.9 °F 19.9 °F 46% 30.43 in 10.0 mi North 4.6 mph - N/A   Overcast
12:55 PM 39.7 °F - 20.1 °F 45% 30.42 in 10.0 mi Calm Calm - N/A   Overcast
1:55 PM 42.4 °F 39.6 °F 20.5 °F 42% 30.41 in 10.0 mi NW 4.6 mph - N/A   Overcast
2:55 PM 43.0 °F 38.2 °F 21.0 °F 42% 30.39 in 10.0 mi NNW 8.1 mph - N/A   Overcast
3:55 PM 43.0 °F 38.8 °F 22.3 °F 44% 30.39 in 10.0 mi Variable 6.9 mph - N/A   Overcast
4:55 PM 42.3 °F - 21.9 °F 44% 30.40 in 10.0 mi Calm Calm - N/A   Overcast
5:55 PM 42.3 °F 37.9 °F 21.9 °F 44% 30.40 in 10.0 mi NNE 6.9 mph - N/A   Overcast
6:55 PM 40.3 °F - 23.2 °F 51% 30.41 in 10.0 mi Calm Calm - N/A   Overcast
7:55 PM 36.7 °F 31.2 °F 26.8 °F 67% 30.43 in 10.0 mi West 6.9 mph - N/A   Mostly Cloudy
8:55 PM 36.0 °F 32.1 °F 26.6 °F 69% 30.43 in 10.0 mi WNW 4.6 mph - N/A   Overcast
9:55 PM 37.0 °F 34.5 °F 27.3 °F 68% 30.42 in 10.0 mi West 3.5 mph - N/A   Overcast
10:55 PM 37.2 °F 30.0 °F 24.1 °F 59% 30.43 in 10.0 mi NNE 10.4 mph - N/A   Overcast
11:55 PM 34.5 °F 27.9 °F 21.2 °F 58% 30.44 in 10.0 mi NNE 8.1 mph - N/A   Overcast